Regional Weather Roundup
Issued by NWS

Home | Current Version | Previous Version | Graphics & Text | Print | Product List | Glossary On
Versions: 1 2 3 4 5 6 7 8 9 10 11 12 13 14 15 16 17 18 19 20 21 22 23 24 25 26 27 28 29 30 31 32 33 34 35 36 37 38 39 40 41 42 43 44 45 46 47 48 49 50
437
ASUS43 KOAX 292302
RWRNE

WEATHER ROUNDUP FOR NEBRASKA
NATIONAL WEATHER SERVICE OMAHA NE
600 PM CDT FRI JUL 29 2016

NOTES: SATELLITE DATA IS BEING USED TO AUGMENT CLOUD COVER ABOVE
       12000 FEET.
       "FAIR" INDICATES FEW OR NO CLOUDS BELOW 12,000 FEET WITH NO
       SIGNIFICANT WEATHER AND/OR OBSTRUCTIONS TO VISIBILITY.

  * THESE STATIONS DO NOT REPORT WEATHER SUCH AS RAIN...SNOW OR FOG.

NEZ001>004-019>022-054>056-300000-
NEBRASKA PANHANDLE

CITY           SKY/WX    TMP DP  RH WIND       PRES   REMARKS
SCOTTSBLUFF    HVY RAIN  73  61  65 SW8G20    30.08R
ALLIANCE       CLOUDY    77  59  53 SE14      30.05F
CHADRON        MOSUNNY   83  60  45 SE16      30.00F
SIDNEY         CLOUDY    77  56  48 S15       30.10F
$$

NEZ057>060-069>072-079>082-300000-
SOUTHWEST NEBRASKA

CITY           SKY/WX    TMP DP  RH WIND       PRES   REMARKS
NORTH PLATTE   MOSUNNY   81  58  45 CALM      30.04F
IMPERIAL       PTSUNNY   81  58  45 SE8       30.06F
LEXINGTON      PTSUNNY   78  64  63 E6        30.05S
MCCOOK         SUNNY     85  58  39 SE5       30.03F
OGALLALA       CLOUDY    81  57  43 SE6       30.06S
$$

NEZ005>010-023>029-035>040-094-300000-
NORTH CENTRAL NEBRASKA

CITY           SKY/WX    TMP DP  RH WIND       PRES   REMARKS
VALENTINE      MOSUNNY   79  56  45 SE7       30.03F
AINSWORTH      SUNNY     76  62  62 SE9       30.06F
BROKEN BOW     PTSUNNY   78  63  59 NE3       30.06S
O`NEILL        SUNNY     78  54  43 CALM      30.06S
ORD            SUNNY     78  57  48 CALM      30.04S
THEDFORD       CLOUDY    79  59  50 SE5       30.06F
$$

NEZ041-046>049-061>064-073>077-083>087-300000-
SOUTH CENTRAL NEBRASKA

CITY           SKY/WX    TMP DP  RH WIND       PRES   REMARKS
GRAND ISLAND   SUNNY     79  61  53 VRB6      30.04F
AURORA         MOSUNNY   78  60  53 E3        30.03F
HASTINGS       SUNNY     81  63  54 NE3       30.04F
HEBRON         MOSUNNY   82  61  49 NE6       30.01F
HOLDREGE       MOSUNNY   80  64  57 E6        30.04S
KEARNEY *      PTSUNNY   81  64  57 NE5       30.05S
YORK           CLOUDY    77  63  61 NE3       30.03F
$$

NEZ011>018-030>034-042>045-300000-
NORTHEAST NEBRASKA

CITY           SKY/WX    TMP DP  RH WIND       PRES   REMARKS
NORFOLK        MOSUNNY   77  56  48 E8        30.03S
ALBION         SUNNY     78  56  47 NE3       30.05S
BLAIR          MOSUNNY   79  61  52 N5        30.01F
FREMONT        SUNNY     80  57  45 N3        30.02S
TEKAMAH        PTSUNNY   80  59  48 NE7       30.01R
WAYNE          MOSUNNY   79  62  55 NE5       30.03F
$$

NEZ050>053-065>068-078-088>093-300000-
SOUTHEAST NEBRASKA

CITY           SKY/WX    TMP DP  RH WIND       PRES   REMARKS
LINCOLN        SUNNY     82  58  43 NE9       30.01F
OMAHA EPPLEY   MOSUNNY   81  62  52 NE6       30.00S
BEATRICE       MOSUNNY   81  63  53 NE6       30.00F
FALLS CITY     SUNNY     81  63  54 N6        29.99F
NEBRASKA CITY  SUNNY     79  57  46 N7        30.01S
PLATTSMOUTH    MOSUNNY   80  60  51 N6        30.00F
$$

NEZ044-045-051>053-067-300000-
OMAHA AREA

CITY           SKY/WX    TMP DP  RH WIND       PRES   REMARKS
OMAHA EPPLEY   MOSUNNY   81  62  52 NE6       30.00S
BLAIR          MOSUNNY   79  61  52 N5        30.01F
FREMONT        SUNNY     80  57  45 N3        30.02S
MILLARD        MOSUNNY   78  59  51 N3        30.00S
OFFUTT AFB     MOSUNNY   80  60  50 N9        30.00R
PLATTSMOUTH    MOSUNNY   80  60  51 N6        30.00F
WAHOO          FAIR      79  60  52 N6        30.01S
$$




USA.gov is the U.S. government's official web portal to all federal, state and local government web resources and services.